Philpott Lake Weather Center

Moon Phase Calendar



Philpott Lake Water Level
Online Cameras

 


      

Current Conditions in Bassett
2/26/2021 7:58:26 PM

36°F
Feels Like 27
Rain
Humidity
100%
Pressure
30.33"
Wind
10.4 mph (NNE)
Dew Point
36°F
UV Index
0/10 (Low)
Visibility
6 mi

Hourly Forecast

Date & Time Fri, Feb 26
7:00 PM
Fri, Feb 26
8:00 PM
Fri, Feb 26
9:00 PM
Fri, Feb 26
10:00 PM
Fri, Feb 26
11:00 PM
Sat, Feb 27
12:00 AM
Sat, Feb 27
1:00 AM
Sat, Feb 27
2:00 AM
Sat, Feb 27
3:00 AM
Sat, Feb 27
4:00 AM
Sat, Feb 27
5:00 AM
Sat, Feb 27
6:00 AM
Sat, Feb 27
7:00 AM
Sat, Feb 27
8:00 AM
Sat, Feb 27
9:00 AM
Sat, Feb 27
10:00 AM
Sat, Feb 27
11:00 AM
Sat, Feb 27
12:00 PM
Sat, Feb 27
1:00 PM
Sat, Feb 27
2:00 PM
Sat, Feb 27
3:00 PM
Sat, Feb 27
4:00 PM
Sat, Feb 27
5:00 PM
Sat, Feb 27
6:00 PM
Sat, Feb 27
7:00 PM
Sat, Feb 27
8:00 PM
Sat, Feb 27
9:00 PM
Sat, Feb 27
10:00 PM
Sat, Feb 27
11:00 PM
Sun, Feb 28
12:00 AM
Sun, Feb 28
1:00 AM
Sun, Feb 28
2:00 AM
Sun, Feb 28
3:00 AM
Sun, Feb 28
4:00 AM
Sun, Feb 28
5:00 AM
Sun, Feb 28
6:00 AM
Sun, Feb 28
7:00 AM
Sun, Feb 28
8:00 AM
Sun, Feb 28
9:00 AM
Sun, Feb 28
10:00 AM
Sun, Feb 28
11:00 AM
Sun, Feb 28
12:00 PM
Sun, Feb 28
1:00 PM
Sun, Feb 28
2:00 PM
Sun, Feb 28
3:00 PM
Sun, Feb 28
4:00 PM
Sun, Feb 28
5:00 PM
Sun, Feb 28
6:00 PM
Condition
Rain

Rain

Rain

Clouds

Clouds

Clouds

Clouds

Clouds

Rain

Rain

Rain

Rain

Rain

Rain

Clouds

Rain

Clouds

Clouds

Clouds

Clouds

Clouds

Clouds

Clouds

Clouds

Clouds

Clouds

Clouds

Clouds

Clouds

Clouds

Clouds

Clouds

Clouds

Clouds

Clouds

Rain

Rain

Clouds

Clouds

Clouds

Clouds

Clouds

Clouds

Clouds

Clouds

Clouds

Clouds

Clouds
Temperature 36°F37°F38°F38°F38°F38°F38°F39°F39°F40°F40°F40°F40°F40°F43°F45°F48°F54°F53°F56°F58°F57°F57°F54°F53°F53°F53°F53°F52°F52°F52°F53°F53°F54°F56°F56°F57°F58°F62°F65°F67°F69°F70°F71°F72°F70°F68°F65°F
Feels Like 29°F31°F32°F33°F33°F33°F34°F35°F36°F36°F35°F37°F37°F37°F38°F41°F44°F49°F50°F53°F55°F55°F55°F53°F51°F51°F51°F51°F51°F51°F51°F51°F51°F52°F53°F53°F54°F55°F57°F59°F62°F64°F65°F67°F67°F66°F65°F63°F
Cloudiness 90%95%98%99%100%100%100%100%100%100%100%100%100%100%100%100%100%100%100%100%100%100%100%100%100%100%100%100%100%100%100%100%100%100%100%100%100%99%99%88%91%93%94%100%100%100%100%100%
Visibility 2 mi4 mi4 mi5 mi4 mi3 mi3 mi6 mi6 mi6 mi5 mi3 mi4 mi6 mi6 mi6 mi6 mi6 mi6 mi6 mi6 mi6 mi6 mi6 mi6 mi6 mi6 mi6 mi6 mi6 mi6 mi6 mi4 mi2 mi6 mi6 mi6 mi6 mi6 mi6 mi6 mi6 mi6 mi6 mi6 mi6 mi6 mi6 mi
Precipitation 100%84%85%77%65%69%65%1%52%88%88%100%100%94%84%80%79%76%64%18%7%12%15%16%10%0%0%0%0%0%0%0%0%0%2%31%21%1%0%0%0%0%0%1%1%7%13%24%
Humidity 100%97%95%94%94%94%94%94%95%95%94%95%95%95%94%92%91%84%88%83%82%84%86%92%94%93%93%93%93%94%94%95%96%95%95%94%93%91%82%75%70%65%63%63%63%68%75%83%
Dew Point 36°F37°F37°F37°F37°F37°F37°F38°F38°F38°F38°F39°F39°F39°F41°F43°F45°F50°F49°F51°F53°F53°F53°F52°F51°F51°F51°F51°F50°F50°F51°F52°F51°F53°F54°F55°F55°F55°F56°F57°F57°F57°F58°F58°F59°F60°F60°F59°F
Pressure 30.33"30.33"30.3"30.3"30.3"30.27"30.24"30.24"30.18"30.18"30.18"30.18"30.18"30.18"30.18"30.18"30.15"30.15"30.15"30.12"30.12"30.12"30.15"30.18"30.18"30.21"30.21"30.21"30.18"30.15"30.15"30.12"30.09"30.09"30.09"30.09"30.06"30.06"30.06"30.03"30.03"30"29.97"29.94"29.91"29.91"29.91"29.91"
Wind Speed 7.3 mph7.4 mph5.8 mph4.6 mph4.1 mph4 mph3.7 mph2 mph2.2 mph2 mph2.9 mph0.2 mph1.2 mph2 mph3.6 mph4.2 mph4.2 mph8.4 mph5.2 mph6.7 mph6.1 mph5.2 mph4.4 mph3.6 mph4.1 mph3.8 mph2.7 mph2.9 mph2.4 mph3 mph3 mph4.6 mph4.5 mph5.8 mph6.6 mph9 mph8.2 mph8.7 mph12.3 mph13.9 mph14.1 mph13.3 mph13.9 mph13.2 mph13.2 mph12.1 mph9.9 mph8 mph
Wind
Direction
99°
E
100°
E
92°
E
56°
NE
31°
NNE
44°
NE
26°
NNE
15°
NNE
46°
NE
24°
NNE

N
251°
WSW
359°
N
126°
SE
189°
S
195°
SSW
217°
SW
212°
SSW
215°
SW
217°
SW
222°
SW
223°
SW
216°
SW
201°
SSW
217°
SW
226°
SW
229°
SW
230°
SW
235°
SW
214°
SW
190°
S
209°
SSW
197°
SSW
200°
SSW
205°
SSW
211°
SSW
207°
SSW
213°
SSW
214°
SW
215°
SW
222°
SW
222°
SW
219°
SW
223°
SW
217°
SW
215°
SW
215°
SW
209°
SSW

Daily Forecast

Date High Low Precip. Humidity
Today
Feb 26

Rain
44 °F
36 °F
100%
90%
Saturday
Feb 27

Rain
58 °F
38 °F
100%
84%
Sunday
Feb 28

Rain
70 °F
52 °F
49%
63%
Monday
Mar 1

Rain
59 °F
41 °F
100%
75%
Tuesday
Mar 2

Clear
48 °F
25 °F
0%
39%
Wednesday
Mar 3

Clear
56 °F
32 °F
0%
42%
Thursday
Mar 4

Clear
62 °F
38 °F
0%
47%
Friday
Mar 5

Rain
59 °F
42 °F
100%
56%
Saturday
Mar 6

Rain
53 °F
47 °F
100%
94%
Sunday
Mar 7

Rain
57 °F
51 °F
100%
93%
Monday
Mar 8

Rain
69 °F
54 °F
84%
62%
Tuesday
Mar 9

Clouds
70 °F
50 °F
0%
57%
Wednesday
Mar 10

Rain
65 °F
49 °F
100%
87%
Thursday
Mar 11

Clear
52 °F
36 °F
0%
41%
Friday
Mar 12

Rain
44 °F
35 °F
100%
86%
Saturday
Mar 13

Rain
67 °F
36 °F
100%
81%


Temperature 8-14 Day Outlook



Precipitation 8-14 Day Outlook




Quick Links
Philpott Lake News
Philpott Lake Photos
Philpott Lake Videos




About Us
Contact Us
Site Map
Search Site
Advertise With Us
   
Philpott.LakesOnline.com
THE PHILPOTT LAKE WEBSITE

Copyright 2021, Lakes Online
Privacy    |    Legal